sat.trackr.live / text

‹ back to catalog

NUSAT-54 (BRANCA MARQU*)

NORAD 68442 · 2026-067AC

PAYLOAD ACTIVE UNKNOWN

§ Identity

Operator
Country
ARGN
Launch date
2026-03-30
Launch site
AFWTR
Launch vehicle
Mass (kg)
RCS (m²)

External: N2YO · Heavens-Above · Gunter

§ Orbital elements

Epoch: 2026-09-20T03:41:53.502144Z

Period
94.83 min
Inclination
97.4648°
Eccentricity
0.0006248
Mean motion
15.18545611 rev/d
Perigee alt
505.9 km
Apogee alt
514.5 km
Semi-major
6,888.4 km
B*
1.8777e-4
RAAN
220.1986°
Arg perigee
95.5338°
Mean anomaly
264.6609°
Rev number
2,634

§ Raw data

NUSAT-54 (BRANCA MARQU*)1 68442U 26067AC  26263.15409146  .00003811  00000+0  18777-3 0  99992 68442  97.4648 220.1986 0006248  95.5338 264.6609 15.18545611 26340

JSON: /api/v1/satellites/68442 · /tle

For live sub-satellite position, see the globe view (requires WebGL).

§ Visibility from observer

Set your observer location to see the next 7 days of passes ≥ 10°. The values pass through the URL so the page stays shareable.

No JS? Fill the form by hand. The geolocation button needs JavaScript.